Ft Riley, KS

12:19 PM CDT on March 25, 2017 (GMT -0500)
Marshall Army Air Field

Weather History for KFRI - November, 2013

Change the Weather History Date:

Monday, November 11, 2013

  Actual Average (KMHK) Record (KMHK)
Temperature  
Mean Temperature 41 °F -  
Max Temperature 55 °F 54 °F 75 °F (2005)
Min Temperature 27 °F 31 °F 17 °F (1997)
Degree Days  
Heating Degree Days 24    
Moisture  
Dew Point 41 °F    
Average Humidity 89    
Maximum Humidity 100    
Minimum Humidity 44    
Precipitation  
Precipitation 0.01 in - - ()
Sea Level Pressure  
Sea Level Pressure 30.31 in    
Wind  
Wind Speed 7 mph (NNW)    
Max Wind Speed 21 mph    
Max Gust Speed 30 mph    
Visibility 10 miles    
Events      
Averages and records for this station are not official NWS values.
T = Trace of Precipitation, MM = Missing Value Source: NWS Daily Summary

Daily Weather History Graph

Daily Weather History Graph

Search for Another Location

Airport or City:

Trip Planner

Search our weather history database for the weather conditions in past years. The results will help you decide how hot, cold, wet, or windy it might be!

Date:

Astronomy

Nov. 11, 2013 Rise Set
Actual Time 7:05 AM CST 5:15 PM CST
Civil Twilight 6:37 AM CST 5:44 PM CST
Nautical Twilight 6:05 AM CST 6:16 PM CST
Astronomical Twilight 5:33 AM CST 6:47 PM CST
Moon 1:54 PM CST (11/11) 12:55 AM CST (11/11)
Length of Visible Light 11h 06m
Length of Day
10h 09m
Waxing Gibbous, 66% of the Moon is Illuminated
Nov 11
Waxing Gibbous
Nov 17
Full
Nov 25
Last Quarter
Dec 2
New
Dec 9
First Quarter

Hourly Weather History & Observations

Time (CST) Temp. Windchill Dew Point Humidity Pressure Visibility Wind Dir Wind Speed Gust Speed Precip Events Conditions
12:58 AM 51.1 °F - 47.8 °F 89% 30.19 in 10.0 mi West 2.3 mph - N/A   Overcast
1:58 AM 51.1 °F - 48.6 °F 91% 30.18 in 10.0 mi WSW 4.6 mph - N/A   Partly Cloudy
2:58 AM 50.5 °F - 48.4 °F 92% 30.17 in 10.0 mi SW 4.6 mph - N/A   Partly Cloudy
3:58 AM 49.1 °F - 48.0 °F 96% 30.16 in 10.0 mi SW 3.5 mph - N/A   Clear
4:58 AM 49.3 °F - 48.9 °F 99% 30.17 in 10.0 mi Calm Calm - N/A   Overcast
5:23 AM 50.0 °F - 50.0 °F 100% 30.17 in 10.0 mi WSW 1.2 mph - N/A   Overcast
5:28 AM 50.0 °F - 50.0 °F 100% 30.16 in 10.0 mi SSW 2.3 mph - N/A   Overcast
5:38 AM 50.0 °F - 48.2 °F 94% 30.16 in 10.0 mi WNW 1.2 mph - N/A   Mostly Cloudy
5:58 AM 48.7 °F - 48.6 °F 99% 30.16 in 10.0 mi Calm Calm - N/A   Overcast
6:03 AM 48.2 °F - 48.2 °F 100% 30.16 in 10.0 mi SW 1.2 mph - N/A   Overcast
6:38 AM 50.0 °F - 50.0 °F 100% 30.17 in 10.0 mi Calm Calm - N/A   Overcast
6:58 AM 49.1 °F - 49.1 °F 100% 30.17 in 10.0 mi Calm Calm - N/A   Overcast
7:58 AM 51.3 °F - 51.3 °F 100% 30.18 in 10.0 mi Calm Calm - N/A   Overcast
8:23 AM 51.8 °F - 51.8 °F 100% 30.19 in 10.0 mi Calm Calm - N/A   Overcast
8:58 AM 53.6 °F - 52.2 °F 95% 30.21 in 10.0 mi WNW 3.5 mph - N/A   Overcast
9:48 AM 55.4 °F - 53.6 °F 94% 30.21 in 10.0 mi West 5.8 mph - N/A   Overcast
9:58 AM 55.9 °F - 53.6 °F 92% 30.22 in 10.0 mi WSW 5.8 mph - N/A   Overcast
10:33 AM 55.4 °F - 53.6 °F 94% 30.23 in 10.0 mi WNW 8.1 mph - N/A   Overcast
10:38 AM 55.4 °F - 53.6 °F 94% 30.23 in 10.0 mi NW 15.0 mph 19.6 mph N/A   Overcast
10:48 AM 51.8 °F - 51.8 °F 100% 30.23 in 8.0 mi NNW 12.7 mph 19.6 mph N/A   Overcast
10:53 AM 51.8 °F - 51.8 °F 100% 30.24 in 6.0 mi NNW 11.5 mph - N/A   Overcast
10:58 AM 51.1 °F - 50.7 °F 99% 30.24 in 7.0 mi NNW 11.5 mph - N/A   Overcast
11:43 AM 48.2 °F - 48.2 °F 100% 30.25 in 10.0 mi North 12.7 mph - N/A   Overcast
11:58 AM 48.4 °F - 48.0 °F 99% 30.27 in 10.0 mi North 13.8 mph 24.2 mph N/A   Overcast
12:08 PM 46.4 °F 39.0 °F 46.4 °F 100% 30.27 in 10.0 mi North 19.6 mph 21.9 mph N/A   Overcast
12:18 PM 44.6 °F 37.2 °F 44.6 °F 100% 30.27 in 10.0 mi North 17.3 mph 23.0 mph N/A   Overcast
12:27 PM 44.6 °F 37.4 °F 44.6 °F 100% 30.28 in 10.0 mi North 16.1 mph - N/A   Overcast
12:58 PM 43.0 °F 36.0 °F 42.6 °F 99% 30.29 in 6.0 mi North 13.8 mph 21.9 mph 0.00 in   Light Drizzle
1:38 PM 41.0 °F 33.1 °F 41.0 °F 100% 30.31 in 8.0 mi North 15.0 mph 23.0 mph N/A   Light Drizzle
1:39 PM 41.0 °F 33.9 °F 41.0 °F 100% 30.31 in 8.0 mi NNE 12.7 mph 23.0 mph N/A   Overcast
1:58 PM 40.3 °F 32.2 °F 39.9 °F 99% 30.33 in 9.0 mi North 15.0 mph 23.0 mph 0.00 in   Overcast
2:03 PM 41.0 °F 33.1 °F 39.2 °F 93% 30.32 in 10.0 mi NNE 15.0 mph 23.0 mph N/A   Overcast
2:18 PM 41.0 °F 33.5 °F 39.2 °F 93% 30.33 in 10.0 mi North 13.8 mph 21.9 mph N/A   Overcast
2:23 PM 41.0 °F 33.5 °F 39.2 °F 93% 30.33 in 10.0 mi NNE 13.8 mph 21.9 mph N/A   Overcast
2:38 PM 41.0 °F 33.9 °F 37.4 °F 87% 30.34 in 10.0 mi NNE 12.7 mph 25.3 mph N/A   Overcast
2:43 PM 41.0 °F 32.8 °F 37.4 °F 87% 30.34 in 10.0 mi North 16.1 mph - N/A   Overcast
2:58 PM 39.4 °F 30.1 °F 37.2 °F 92% 30.36 in 9.0 mi NNE 18.4 mph 21.9 mph 0.01 in   Overcast
3:18 PM 39.2 °F 30.5 °F 33.8 °F 81% 30.36 in 10.0 mi NNE 16.1 mph 24.2 mph N/A   Overcast
3:58 PM 38.8 °F 30.0 °F 32.7 °F 79% 30.40 in 10.0 mi NNE 16.1 mph - N/A   Overcast
4:03 PM 39.2 °F 30.8 °F 32.0 °F 75% 30.40 in 10.0 mi North 15.0 mph - N/A   Overcast
4:58 PM 37.8 °F 28.0 °F 27.7 °F 67% 30.44 in 10.0 mi North 18.4 mph 24.2 mph N/A   Overcast
5:08 PM 37.4 °F 27.5 °F 26.6 °F 65% 30.44 in 10.0 mi NNE 18.4 mph 25.3 mph N/A   Overcast
5:58 PM 36.5 °F 26.3 °F 25.3 °F 64% 30.50 in 10.0 mi North 18.4 mph 29.9 mph N/A   Overcast
6:58 PM 32.9 °F 21.0 °F 23.2 °F 67% 30.55 in 10.0 mi North 20.7 mph 26.5 mph N/A   Clear
7:58 PM 30.0 °F 18.3 °F 19.8 °F 66% 30.60 in 10.0 mi NNE 17.3 mph 24.2 mph N/A   Overcast
8:58 PM 28.4 °F 17.0 °F 15.4 °F 58% 30.63 in 10.0 mi NNE 15.0 mph - N/A   Mostly Cloudy
9:58 PM 27.7 °F 17.6 °F 14.2 °F 57% 30.67 in 10.0 mi NNE 11.5 mph 18.4 mph N/A   Scattered Clouds
10:58 PM 27.9 °F 19.8 °F 11.7 °F 51% 30.71 in 10.0 mi North 8.1 mph - N/A   Mostly Cloudy
11:58 PM 28.0 °F 18.6 °F 8.6 °F 44% 30.74 in 10.0 mi North 10.4 mph - N/A   Overcast